Temp
64 64 63 63 62 63 62 61 61 62 61 61 61 62 63 64 63 62 63 63 63 63 62 62 63 62 63 62 62 62 62 62 62 61 61 61 61 61 61 61 60 60
64 64 64 63 62 62 62 62 62 62 61 61 62 63 63 64 63 64 63 63 63 63 63 63 62 62 62 62 61 61 61 62 62 63 61 60 60 61 61 61 61 60
62 63 63 62 62 61 62 62 62 62 62 62 63 63 64 64 63 64 64 64 63 63 63 63 62 62 62 61 61 61 61 61 62 61 61 61 60 61 61 61 60 60
61 62 63 63 63 62 62 62 62 62 62 62 63 64 65 65 64 64 64 65 63 63 63 63 63 62 61 61 61 61 61 61 61 61 60 60 60 61 60 61 60 60
61 61 63 63 63 63 62 62 62 62 62 63 63 63 64 64 64 63 64 64 64 63 63 63 62 62 61 61 60 60 60 60 60 60 60 59 59 60 60 61 60 60
62 62 63 64 64 63 63 63 63 63 63 63 63 63 63 64 63 63 63 63 63 63 62 62 62 61 61 60 60 60 60 60 60 60 60 59 59 60 61 60 60 60
61 62 61 61 63 65 64 64 63 63 64 64 63 63 63 63 63 63 63 64 63 63 62 62 62 61 61 60 60 59 59 60 59 60 60 59 59 59 60 60 60 60
60 61 62 61 61 63 65 64 64 64 63 62 63 62 63 63 63 63 64 64 63 62 62 62 62 61 60 60 60 59 59 60 60 60 59 58 58 59 58 60 59 59
61 61 62 62 61 61 64 65 64 63 63 63 63 61 61 63 63 63 64 63 63 62 62 62 62 61 60 60 60 60 59 60 60 60 59 58 58 59 59 59 59 60
61 61 62 61 61 61 64 65 64 63 64 64 63 61 62 61 62 62 61 62 62 62 62 62 62 61 61 61 61 60 60 60 60 60 59 59 59 59 60 60 60 60
61 61 61 60 60 60 62 64 63 63 63 63 62 62 62 61 60 60 61 61 62 62 62 61 62 62 61 61 61 61 61 60 60 60 59 59 60 60 61 61 60 60
60 60 61 61 61 61 61 62 63 63 62 61 62 62 61 61 61 62 63 62 61 62 61 60 59 61 62 61 61 61 61 61 61 60 60 60 60 60 61 61 61 61
60 60 60 61 60 61 61 61 62 62 62 62 62 62 61 60 60 60 59 60 58 58 57 57 57 57 56 58 59 60 61 61 60 60 60 59 60 60 61 61 61 61
58 59 60 60 61 61 61 61 63 62 61 61 62 61 60 59 59 59 57 57 56 55 54 54 54 53 52 54 57 59 59 59 60 60 59 59 58 59 60 61 61 61
58 58 59 60 61 62 61 61 63 63 62 62 60 59 60 59 59 58 56 55 54 53 52 51 51 49 49 48 53 57 58 58 59 60 60 59 59 59 59 60 60 58
58 58 59 60 60 61 61 61 63 63 62 60 59 59 59 58 57 57 56 54 52 51 50 49 48 47 46 45 48 54 56 60 58 59 60 59 59 58 58 57 57 56
58 58 58 59 60 60 60 61 61 62 61 60 59 58 58 57 56 55 54 53 52 51 49 47 46 45 43 42 43 50 56 56 57 56 57 59 59 59 57 55 54 55
58 58 58 58 58 59 60 59 59 59 59 59 58 57 56 55 54 53 51 51 50 49 48 47 45 43 40 43 43 46 52 56 57 58 57 57 57 57 56 55 54 54
57 58 58 59 58 58 59 58 58 57 58 58 57 56 54 53 51 50 49 49 49 48 46 45 44 42 40 43 44 45 50 54 58 57 58 56 56 56 55 54 53 52
52 57 58 58 58 57 57 57 57 57 56 56 56 54 52 50 49 48 48 47 47 47 45 44 43 42 41 43 45 46 49 52 58 57 57 57 56 56 54 52 51 51
49 51 52 55 57 56 56 56 56 55 54 54 54 53 51 49 49 47 47 46 45 46 46 44 43 41 41 43 45 47 49 51 56 56 55 54 53 51 50 50 49 49
48 49 49 49 52 53 53 53 52 52 51 50 50 50 50 49 48 47 46 45 45 45 46 44 44 41 41 43 46 47 49 54 53 52 51 50 50 49 49 48 48 48
48 48 48 49 49 49 49 50 50 50 49 50 48 48 49 48 47 46 46 45 45 45 44 43 43 42 41 44 46 47 50 52 51 50 48 47 47 48 48 48 48 47
48 48 47 48 48 48 48 48 48 48 48 49 47 47 47 48 47 47 46 46 45 44 45 43 43 42 41 43 45 47 50 52 50 49 47 46 46 46 46 47 49 51
47 48 47 47 47 47 48 48 48 48 48 48 48 48 48 48 48 47 46 46 45 45 48 45 44 44 41 41 44 46 50 52 51 49 47 46 45 45 45 45 44 44
47 47 47 47 46 47 47 48 49 48 48 47 47 47 45 45 47 47 45 45 46 46 46 46 45 44 42 41 42 43 47 53 52 50 47 46 47 47 45 44 43 43
MSLP
1014.20 1014.20 1014.28 1014.36 1014.52 1014.76 1015.12 1015.48 1015.60 1015.72 1015.84 1016.00 1016.16 1016.24 1016.24 1016.24 1016.76 1016.96 1016.72 1016.64 1016.48 1016.56 1016.80 1016.84 1016.92 1017.08 1017.16 1017.44 1017.72 1017.84 1017.92 1018.12 1018.24 1018.44 1018.68 1018.76 1018.92 1019.04 1019.24 1019.28 1019.36 1019.36
1014.72 1014.48 1014.48 1014.52 1014.60 1014.76 1014.96 1015.08 1015.24 1015.40 1015.64 1015.76 1015.84 1015.96 1016.08 1016.16 1016.88 1016.80 1016.72 1016.56 1016.36 1016.44 1016.56 1016.72 1016.88 1016.96 1017.04 1017.36 1017.64 1017.84 1018.00 1018.08 1018.24 1018.36 1018.64 1018.80 1018.88 1018.96 1019.08 1019.12 1019.20 1019.32
1015.68 1015.16 1014.80 1014.80 1014.68 1014.72 1014.80 1014.92 1015.00 1015.12 1015.32 1015.48 1015.68 1015.80 1015.96 1015.96 1016.40 1016.52 1016.56 1016.44 1016.48 1016.44 1016.56 1016.60 1016.72 1016.88 1017.04 1017.28 1017.56 1017.76 1017.96 1018.08 1018.24 1018.40 1018.56 1018.76 1018.88 1018.92 1018.96 1019.08 1019.20 1019.28
1015.80 1015.92 1015.04 1014.76 1014.60 1014.56 1014.64 1014.84 1015.00 1015.08 1015.16 1015.40 1015.52 1015.56 1015.68 1015.84 1016.04 1016.40 1016.44 1016.40 1016.48 1016.48 1016.52 1016.56 1016.60 1016.84 1017.04 1017.24 1017.52 1017.84 1017.96 1018.08 1018.20 1018.40 1018.60 1018.76 1018.80 1018.84 1018.96 1019.08 1019.20 1019.36
1014.88 1015.60 1015.28 1014.72 1014.48 1014.32 1014.44 1014.64 1014.88 1015.00 1015.08 1015.08 1015.20 1015.32 1015.52 1015.72 1015.92 1016.16 1016.36 1016.48 1016.52 1016.64 1016.60 1016.56 1016.60 1016.92 1017.16 1017.36 1017.48 1017.76 1017.96 1018.08 1018.20 1018.32 1018.48 1018.68 1018.76 1018.80 1018.96 1019.08 1019.24 1019.40
1013.68 1014.28 1014.88 1014.76 1014.28 1014.24 1014.24 1014.44 1014.64 1014.88 1015.00 1015.08 1015.12 1015.20 1015.36 1015.52 1015.72 1015.92 1016.16 1016.40 1016.60 1016.64 1016.68 1016.64 1016.72 1017.04 1017.28 1017.40 1017.48 1017.68 1017.88 1018.08 1018.16 1018.24 1018.44 1018.64 1018.76 1018.80 1018.88 1019.08 1019.24 1019.36
1013.96 1014.12 1014.76 1015.32 1015.00 1014.16 1014.12 1014.24 1014.52 1014.76 1014.88 1014.92 1015.12 1015.24 1015.28 1015.52 1015.68 1015.84 1015.96 1016.12 1016.44 1016.60 1016.64 1016.64 1016.72 1017.04 1017.24 1017.40 1017.52 1017.68 1017.88 1018.04 1018.20 1018.28 1018.48 1018.64 1018.72 1018.88 1018.92 1019.04 1019.20 1019.32
1014.08 1013.56 1013.88 1014.88 1015.56 1014.96 1014.20 1014.28 1014.48 1014.72 1014.88 1015.04 1015.16 1015.24 1015.28 1015.48 1015.64 1015.72 1015.84 1016.00 1016.28 1016.52 1016.56 1016.52 1016.60 1016.88 1017.12 1017.36 1017.56 1017.76 1017.92 1018.08 1018.24 1018.36 1018.52 1018.72 1018.80 1018.92 1019.00 1019.04 1019.20 1019.32
1014.16 1013.80 1013.48 1014.16 1015.40 1015.64 1014.60 1014.36 1014.52 1014.64 1014.72 1014.88 1015.08 1015.24 1015.28 1015.44 1015.56 1015.68 1015.80 1015.92 1016.12 1016.32 1016.40 1016.44 1016.48 1016.72 1016.92 1017.12 1017.44 1017.64 1017.84 1018.04 1018.20 1018.28 1018.44 1018.68 1018.84 1018.92 1019.00 1019.08 1019.20 1019.24
1014.16 1014.20 1013.88 1013.88 1014.92 1015.80 1015.00 1014.36 1014.44 1014.52 1014.56 1014.72 1014.92 1015.12 1015.32 1015.44 1015.56 1015.72 1015.88 1015.96 1016.08 1016.16 1016.20 1016.24 1016.36 1016.60 1016.84 1016.96 1017.08 1017.40 1017.60 1017.76 1018.00 1018.16 1018.28 1018.44 1018.56 1018.76 1018.92 1019.04 1019.04 1019.20
1013.64 1014.04 1014.24 1014.40 1014.92 1015.96 1015.52 1014.44 1014.48 1014.60 1014.68 1014.80 1014.92 1015.08 1015.16 1015.40 1015.60 1015.76 1015.92 1016.04 1016.08 1016.04 1016.12 1016.16 1016.20 1016.44 1016.76 1016.96 1017.04 1017.12 1017.28 1017.48 1017.68 1017.92 1018.20 1018.36 1018.40 1018.52 1018.68 1018.84 1018.96 1019.04
1013.08 1013.52 1013.92 1014.32 1014.64 1015.60 1016.04 1015.00 1014.60 1014.76 1014.84 1014.96 1015.00 1015.00 1015.12 1015.28 1015.48 1015.68 1015.80 1015.96 1016.00 1016.00 1016.04 1016.12 1016.20 1016.24 1016.44 1016.72 1016.96 1017.08 1017.24 1017.36 1017.48 1017.72 1018.00 1018.24 1018.36 1018.44 1018.52 1018.60 1018.76 1018.88
1013.00 1013.20 1013.44 1013.88 1014.20 1014.96 1015.96 1015.92 1014.92 1014.80 1014.92 1015.04 1015.00 1015.00 1015.12 1015.32 1015.44 1015.68 1015.88 1016.04 1016.24 1016.24 1016.28 1016.32 1016.40 1016.44 1016.48 1016.56 1016.80 1017.04 1017.20 1017.36 1017.52 1017.68 1017.84 1018.04 1018.24 1018.36 1018.40 1018.52 1018.64 1018.72
1013.32 1013.40 1013.52 1013.68 1013.88 1014.20 1015.20 1016.00 1015.32 1014.88 1015.00 1015.04 1015.08 1015.16 1015.28 1015.36 1015.52 1015.76 1016.12 1016.24 1016.52 1016.60 1016.80 1016.68 1016.60 1016.64 1016.68 1016.64 1016.64 1016.88 1017.16 1017.36 1017.48 1017.64 1017.76 1017.92 1018.08 1018.24 1018.36 1018.48 1018.56 1018.64
1013.52 1013.64 1013.68 1013.72 1013.72 1013.92 1014.44 1015.40 1015.20 1014.76 1014.88 1015.00 1015.12 1015.32 1015.44 1015.48 1015.64 1015.80 1016.12 1016.56 1016.92 1017.00 1017.08 1017.12 1016.96 1017.00 1017.12 1017.00 1016.72 1016.76 1016.84 1017.04 1017.32 1017.56 1017.68 1017.96 1018.08 1018.16 1018.32 1018.36 1018.44 1018.64
1013.72 1013.84 1013.92 1013.96 1013.96 1013.84 1013.88 1014.56 1015.00 1014.84 1014.88 1015.08 1015.16 1015.24 1015.48 1015.68 1015.84 1016.00 1016.16 1016.52 1016.96 1017.32 1017.44 1017.48 1017.48 1017.60 1017.48 1017.24 1017.00 1016.68 1016.72 1016.84 1017.00 1017.16 1017.40 1017.72 1018.00 1018.28 1018.44 1018.56 1018.76 1018.88
1013.88 1013.80 1013.88 1014.04 1014.00 1014.08 1014.16 1014.20 1014.80 1014.88 1015.16 1015.24 1015.20 1015.32 1015.56 1015.80 1015.96 1016.28 1016.60 1016.88 1017.04 1017.20 1017.36 1017.60 1017.64 1017.68 1017.56 1017.24 1016.96 1016.68 1016.64 1016.84 1016.96 1017.20 1017.32 1017.60 1017.84 1018.08 1018.52 1018.80 1019.08 1019.24
1013.64 1013.84 1014.16 1014.44 1014.16 1014.12 1014.28 1014.56 1014.72 1014.92 1015.20 1015.28 1015.32 1015.56 1015.88 1016.04 1016.24 1016.64 1017.00 1017.24 1017.40 1017.52 1017.48 1017.60 1017.56 1017.72 1017.52 1017.24 1016.96 1016.68 1016.64 1016.80 1016.96 1017.20 1017.48 1017.64 1017.88 1018.24 1018.60 1018.88 1019.20 1019.44
1014.12 1013.84 1013.96 1013.80 1013.88 1014.20 1014.32 1014.52 1015.00 1015.20 1015.48 1015.32 1015.56 1015.84 1016.12 1016.36 1016.76 1017.00 1017.32 1017.56 1017.52 1017.40 1017.60 1017.80 1017.60 1017.68 1017.36 1017.12 1016.96 1016.76 1016.72 1016.88 1017.24 1017.32 1017.44 1017.84 1018.16 1018.48 1018.88 1019.24 1019.48 1019.68
1015.04 1014.12 1013.84 1013.72 1013.88 1014.24 1014.36 1014.48 1015.04 1015.04 1015.60 1015.72 1015.84 1016.24 1016.48 1016.88 1017.12 1017.32 1017.64 1017.80 1017.92 1017.80 1017.88 1017.96 1017.76 1017.76 1017.40 1017.12 1016.96 1016.92 1017.00 1017.20 1017.52 1017.72 1018.00 1018.36 1018.68 1018.96 1019.36 1019.72 1019.96 1020.04
1015.80 1015.20 1014.92 1014.44 1013.96 1014.28 1014.40 1014.56 1014.88 1015.20 1016.24 1016.68 1016.24 1016.52 1016.80 1017.12 1017.40 1017.64 1017.96 1018.16 1018.24 1018.20 1017.92 1018.04 1018.32 1018.12 1017.60 1017.24 1017.16 1017.12 1017.24 1017.48 1017.88 1018.20 1018.64 1019.16 1019.60 1019.84 1020.04 1020.36 1020.56 1020.60
1016.48 1016.08 1015.48 1015.56 1015.20 1014.60 1015.00 1015.12 1015.36 1015.36 1016.24 1017.24 1016.92 1017.24 1017.40 1017.56 1018.04 1018.16 1018.32 1018.44 1018.52 1018.40 1018.04 1018.24 1018.60 1018.44 1018.00 1017.52 1017.32 1017.32 1017.44 1017.96 1018.36 1018.80 1019.32 1019.80 1020.24 1020.52 1020.64 1020.76 1020.84 1020.84
1017.28 1017.04 1016.52 1016.20 1016.36 1015.84 1015.72 1015.76 1015.88 1016.12 1016.56 1017.44 1017.40 1017.88 1017.92 1018.12 1018.44 1018.68 1018.88 1018.92 1018.88 1018.80 1018.68 1018.80 1018.92 1018.88 1018.52 1017.84 1017.60 1017.56 1017.80 1018.44 1018.88 1019.36 1019.84 1020.24 1020.68 1020.80 1020.88 1021.00 1021.12 1021.16
1017.84 1017.76 1017.44 1017.12 1016.92 1017.08 1016.76 1016.64 1016.64 1016.84 1017.16 1017.56 1017.84 1018.28 1018.60 1018.80 1018.76 1018.92 1019.16 1019.28 1019.28 1019.36 1019.44 1019.32 1019.52 1019.48 1019.08 1018.40 1017.96 1017.88 1017.96 1018.60 1019.12 1019.64 1020.36 1020.64 1021.08 1021.24 1021.28 1021.32 1021.40 1021.40
1018.48 1018.20 1018.04 1017.56 1017.44 1017.92 1017.92 1017.40 1017.20 1017.20 1017.76 1018.04 1018.16 1018.68 1019.08 1019.08 1018.96 1018.92 1019.36 1019.64 1019.84 1019.88 1019.72 1019.84 1020.08 1020.04 1019.80 1019.32 1018.76 1018.40 1018.40 1018.76 1019.12 1019.64 1020.36 1021.00 1021.12 1021.48 1021.64 1021.72 1021.92 1021.96
1019.08 1018.76 1018.56 1018.40 1018.40 1018.48 1018.64 1018.40 1017.80 1017.52 1018.04 1018.56 1018.72 1019.28 1019.60 1019.48 1019.24 1019.32 1019.64 1020.16 1020.24 1020.08 1020.16 1020.36 1020.52 1020.64 1020.60 1020.20 1019.72 1019.36 1018.88 1018.80 1019.08 1019.48 1020.44 1021.00 1021.20 1021.32 1021.56 1021.84 1022.00 1022.12
Wind_Speed
4 5 6 7 7 7 8 8 7 8 7 6 7 6 7 5 7 7 5 5 7 7 6 6 5 5 5 5 5 5 5 4 5 6 6 6 6 7 7 6 5 6
3 5 5 5 5 6 6 7 8 7 7 6 6 6 4 5 8 9 9 7 7 6 6 6 5 5 5 5 6 6 5 4 5 3 6 6 6 6 6 6 6 4
7 4 5 6 7 7 7 6 6 6 7 6 5 5 6 4 8 8 9 8 6 7 6 5 5 4 4 4 5 6 5 5 6 4 6 6 6 6 6 6 5 6
3 7 6 6 5 7 6 6 5 5 5 6 6 6 6 5 6 8 8 9 8 7 6 5 6 4 3 3 4 5 6 5 5 6 6 5 5 6 5 5 4 4
3 6 7 6 5 6 6 7 7 5 6 6 6 5 6 6 7 7 8 9 8 7 6 7 5 4 4 4 4 5 5 5 5 6 6 6 5 5 5 5 5 5
9 7 7 6 6 7 7 7 6 6 6 6 7 6 6 7 7 7 8 9 9 9 8 6 6 5 5 5 5 4 5 5 4 5 5 6 6 5 5 5 5 5
5 4 2 8 6 6 7 7 6 6 6 6 5 6 7 7 7 8 8 9 9 9 9 7 7 5 5 5 5 4 4 4 4 4 5 5 5 5 4 5 5 5
4 5 6 0 8 6 6 7 7 7 6 6 6 6 6 7 7 7 8 8 9 9 8 8 7 6 6 6 6 5 5 4 5 5 4 4 4 5 3 4 4 4
1 2 8 6 2 8 6 8 8 7 7 8 6 6 4 6 7 7 8 8 8 8 9 8 8 7 6 6 6 7 7 6 6 6 5 6 6 5 5 4 4 5
2 1 4 7 3 7 9 9 9 8 7 8 7 6 6 5 5 6 5 6 7 7 8 8 7 7 6 6 6 7 7 7 7 6 6 6 6 6 6 6 5 5
8 5 4 4 2 6 8 8 7 7 6 7 7 7 6 5 4 4 4 5 6 6 6 6 7 7 7 6 5 6 6 6 6 6 6 5 5 6 6 7 6 6
10 9 8 6 5 2 9 4 7 6 6 5 6 7 6 6 6 5 6 6 5 5 4 4 4 5 7 8 7 6 6 6 6 6 6 6 5 5 6 6 6 6
9 9 10 9 8 4 4 7 3 5 6 6 5 6 6 5 5 6 4 5 4 4 4 4 4 3 2 3 5 6 7 6 6 5 5 5 5 6 5 5 5 5
2 3 5 7 8 8 3 7 6 5 5 5 5 6 5 6 7 7 4 5 5 5 4 4 5 4 3 2 2 5 6 6 6 6 5 4 4 4 5 6 6 5
3 3 3 5 9 10 9 6 7 6 6 6 5 5 5 7 7 8 8 7 5 5 5 4 5 4 2 2 3 4 4 7 8 8 8 6 5 4 4 5 5 4
3 3 3 4 6 10 12 9 6 6 6 5 6 7 8 7 7 7 8 8 7 5 5 4 4 2 2 3 2 3 4 4 5 7 7 8 7 6 4 3 4 4
4 4 4 4 7 7 6 9 7 6 4 5 7 8 9 8 8 8 6 6 7 7 6 4 3 2 5 3 2 4 5 4 5 4 5 7 7 7 6 5 6 5
3 4 6 4 5 7 6 2 3 5 7 6 9 8 7 7 9 8 7 6 6 6 6 4 3 4 5 3 4 7 6 6 5 5 5 6 5 6 6 7 6 6
3 7 8 10 7 4 4 5 5 6 1 9 9 8 7 9 8 8 7 4 5 7 5 3 3 6 5 4 5 8 10 8 6 5 6 5 6 7 7 7 6 6
10 1 8 10 6 5 6 7 6 9 4 3 9 8 9 9 8 8 6 5 4 6 6 4 4 8 7 5 6 11 14 11 7 8 7 7 7 7 7 7 5 6
10 9 8 3 5 6 6 6 9 9 6 1 8 8 9 9 8 8 6 5 4 4 7 6 5 9 7 7 10 15 16 12 9 9 10 10 9 8 8 8 6 7
12 11 9 10 5 9 7 9 8 10 11 3 9 8 8 9 7 7 7 6 4 4 7 7 6 12 8 8 13 16 16 10 10 11 11 10 9 8 7 7 6 6
13 11 11 11 10 7 9 8 9 9 12 6 10 8 8 8 8 7 6 6 6 6 8 7 7 11 10 10 14 17 13 10 10 10 10 11 9 7 7 7 7 6
12 12 12 11 12 11 8 9 9 10 9 8 10 9 9 7 8 9 9 8 9 9 7 8 8 11 12 9 12 13 14 11 9 11 10 10 9 8 7 8 8 12
10 12 13 14 15 12 10 8 10 11 10 8 10 9 8 6 8 10 10 9 9 8 13 11 8 11 15 13 10 12 12 10 10 10 11 8 8 8 6 6 7 8
11 12 13 13 13 13 11 8 8 11 12 10 10 8 8 8 9 10 12 10 9 10 11 10 11 10 13 16 14 12 9 10 9 12 11 9 6 7 7 6 6 5
Wind_Direction
189 195 188 180 176 171 169 172 182 181 185 180 183 192 190 183 118 144 175 184 187 190 188 195 187 187 183 156 150 148 156 166 165 159 161 160 165 166 170 170 169 168
254 194 201 185 166 160 172 176 177 178 180 185 192 187 184 172 130 162 166 177 186 191 188 197 200 188 179 160 153 148 150 156 159 150 147 158 168 168 171 172 171 156
308 260 196 198 180 173 174 177 175 174 176 184 183 180 178 176 150 158 162 166 182 191 197 207 202 185 171 161 148 149 153 154 153 151 153 162 164 171 175 167 163 166
297 266 236 207 194 177 168 168 179 180 168 172 184 179 168 168 160 156 161 164 173 188 203 200 202 176 156 160 147 152 158 160 150 150 150 149 169 167 168 166 159 164
162 284 256 217 204 180 164 173 182 182 181 181 171 166 160 165 166 156 157 163 169 180 192 196 194 166 146 155 159 149 155 155 146 149 152 157 168 165 168 159 162 168
183 206 260 244 202 180 173 177 180 179 178 169 174 164 166 162 162 162 160 160 164 171 182 190 192 157 146 156 159 159 151 147 152 150 153 160 165 168 160 163 161 169
167 107 359 324 293 196 172 170 172 175 175 171 151 163 157 155 162 166 165 163 160 166 175 186 186 157 153 152 158 153 142 147 153 159 160 162 159 170 168 161 167 176
163 157 135 92 301 246 171 164 163 170 166 151 157 163 155 154 161 163 165 163 160 165 173 182 180 164 158 156 160 157 155 156 166 165 165 163 164 175 173 169 165 174
200 169 135 145 230 255 193 164 165 166 159 153 155 163 162 160 162 164 166 163 160 163 169 176 179 168 163 166 162 161 168 172 171 171 168 168 171 178 177 171 171 183
119 109 139 136 170 236 204 167 167 164 158 156 160 160 168 175 169 166 166 165 158 162 166 174 176 165 164 174 175 163 171 178 172 174 174 179 175 173 178 182 185 182
151 153 127 97 101 280 236 168 163 157 161 156 155 163 169 155 159 155 157 164 164 168 163 167 178 169 165 171 180 172 172 174 177 175 176 183 180 177 180 183 180 189
159 150 144 151 125 279 282 219 155 159 157 156 161 162 155 143 151 161 160 168 170 164 155 141 145 173 177 175 174 173 172 178 180 183 184 180 178 180 182 181 183 189
162 162 159 155 138 129 296 291 182 154 156 168 171 157 147 137 131 127 129 120 110 104 99 102 93 82 101 163 178 168 171 176 182 187 189 190 180 180 182 180 182 182
65 103 134 146 140 123 127 259 226 158 171 174 162 150 133 131 134 126 103 99 98 94 83 90 95 76 49 36 116 156 162 174 179 179 189 199 186 179 169 177 180 182
99 68 99 141 147 144 152 224 225 172 172 170 150 127 128 131 130 121 114 99 85 95 88 72 80 73 52 18 80 118 149 161 169 174 177 169 174 175 169 172 173 148
89 114 136 149 160 162 168 181 216 175 170 152 137 133 133 129 120 117 119 122 115 96 89 83 77 69 22 14 330 123 118 115 131 158 158 151 154 155 150 104 73 73
175 196 141 163 172 179 177 162 187 171 139 135 133 131 129 126 119 114 108 113 117 117 102 86 66 28 7 30 62 100 108 112 115 122 137 140 144 149 133 101 83 76
184 136 139 188 171 180 160 167 157 131 139 141 131 125 120 116 112 110 110 111 110 102 93 86 75 13 5 30 85 95 104 107 110 112 123 127 127 116 110 105 98 86
294 146 172 179 186 186 161 118 112 73 98 138 130 124 118 112 111 109 103 96 105 102 85 61 62 6 12 35 74 98 104 99 85 100 105 100 100 100 98 101 100 91
347 270 169 181 181 142 141 140 136 132 163 163 119 114 110 104 101 97 92 84 81 93 88 53 42 352 1 37 77 93 96 94 91 86 82 80 82 88 91 82 81 95
3 15 7 346 125 123 129 130 135 118 70 351 111 114 111 106 106 100 88 82 71 81 83 56 19 354 358 48 79 95 94 93 90 86 81 77 70 73 79 85 86 89
14 7 33 20 356 108 113 111 107 108 106 104 93 87 87 92 76 78 84 75 57 63 78 57 21 6 9 71 100 100 95 90 91 87 87 81 75 70 73 73 74 79
21 17 26 37 9 40 80 80 87 94 102 101 95 87 93 87 90 81 71 70 61 51 63 61 35 8 11 84 105 105 96 98 93 91 87 85 76 72 72 71 64 60
35 26 31 36 40 19 44 72 80 79 73 96 94 97 85 82 95 85 69 59 56 51 40 57 42 18 17 56 97 105 112 108 105 100 92 92 87 70 71 68 61 62
32 44 31 34 39 28 9 53 77 82 80 74 88 83 82 90 81 81 74 59 53 55 46 48 39 26 21 23 60 100 109 112 112 108 102 95 98 89 74 77 64 49
27 38 44 40 36 32 14 14 58 80 83 81 75 70 78 72 73 75 75 66 58 54 50 42 38 33 24 23 30 34 88 118 119 115 114 113 102 99 92 70 67 62